Content
SEND FEEDBACK

Daily
Averages
Monthly
Summary
United States of America

COLLINS, MISSISSIPPI


Home > North America > United States > Mississippi
Elevation: 342 feet     Latitude: 31 38N     Longitude: 089 34W

WEATHER
 
SELECT A DAY
Number of Records: 446,545;   Date Range: 1/1/95 - 7/29/14
 
SHARE

PRINT THIS DATA

[ ← Previous Day ]
WEATHER ALMANAC - JANUARY 3, 2013
[ Next Day → ]
[ °C ]   °F
Weather ElementAverageHighLow
Temperature39 °F48.2 °F (2:15 pm)30.2 °F (9:35 pm)
Dewpoint27.6 °F35.6 °F (12:35 am)23 °F (2:35 pm)
Humidity65.8 %87 % (12:35 am)37 % (2:35 pm)
Barometer30.32 in30.40 in (9:15 pm)30.23 in (1:35 am)
Wind Speed7 mph12.7 mph (3:15 pm)
Wind Gust17.3 mph (2:35 pm)
Weather ElementAverage
Visibility8.7 mi
Wind DirectionW (272.4 °)

Weather ElementTotal
Precipitation---
Heating Degree Days25.8 (Base 65)
Averaged from 68 records on January 3, 2013
WEATHER CONDITIONS BREAKOUT
WIND DIRECTION BREAKOUT
WEATHER BY HOUR - JANUARY 3, 2013
[ °C ]   °F
Local TimeTemperatureDewpointHumidityBarometerVisibilityWind DirectionWind SpeedGust SpeedPrecipitationEventsConditions
12:35 AM39.2 °F35.6 °F87 %30.24 in3.0 miNNW (340°)3.5 mphOvercast
12:55 AM39.2 °F35.6 °F87 %30.26 in4.0 miNW (320°)5.8 mphOvercast
1:15 AM39.2 °F35.6 °F87 %30.24 in4.0 miNorth (360°)4.6 mphOvercast
1:35 AM39.2 °F35.6 °F87 %30.23 in5.0 miNorth (10°)5.8 mphMostly Cloudy
1:55 AM39.2 °F35.6 °F87 %30.24 in5.0 miNNW (330°)8.1 mphPartly Cloudy
2:15 AM37.4 °F33.8 °F87 %30.24 in6.0 miNorth (350°)9.2 mphPartly Cloudy
2:35 AM37.4 °F33.8 °F87 %30.24 in6.0 miNNW (340°)6.9 mphClear
2:55 AM37.4 °F33.8 °F87 %30.24 in5.0 miNorth (360°)5.8 mphScattered Clouds
3:15 AM37.4 °F33.8 °F87 %30.24 in5.0 miNorth (10°)6.9 mphOvercast
3:35 AM37.4 °F33.8 °F87 %30.26 in5.0 miNNW (340°)9.2 mphOvercast
3:55 AM37.4 °F33.8 °F87 %30.25 in5.0 miNorth (360°)6.9 mphMostly Cloudy
4:15 AM37.4 °F33.8 °F87 %30.25 in5.0 miNNW (340°)9.2 mphMostly Cloudy
4:35 AM37.4 °F33.8 °F87 %30.25 in5.0 miNNW (340°)5.8 mphMostly Cloudy
4:55 AM37.4 °F33.8 °F87 %30.26 in6.0 miNNW (330°)10.4 mphPartly Cloudy
5:15 AM37.4 °F32.0 °F81 %30.26 in7.0 miNorth (350°)6.9 mphClear
5:35 AM37.4 °F30.2 °F75 %30.27 in8.0 miNNW (340°)9.2 mphClear
5:55 AM35.6 °F30.2 °F81 %30.27 in10.0 miNorth (360°)9.2 mphClear
6:15 AM35.6 °F28.4 °F75 %30.29 in10.0 miNNW (340°)8.1 mphClear
6:35 AM35.6 °F28.4 °F75 %30.29 in10.0 miNNW (340°)5.8 mphClear
6:55 AM35.6 °F28.4 °F75 %30.30 in10.0 miNorth (350°)5.8 mphClear
7:35 AM35.6 °F28.4 °F75 %30.31 in9.0 miNNW (340°)6.9 mphClear
7:55 AM35.6 °F28.4 °F75 %30.32 in8.0 miNNW (340°)8.1 mphClear
8:15 AM35.6 °F28.4 °F75 %30.32 in8.0 miNorth (350°)5.8 mphClear
8:35 AM35.6 °F28.4 °F75 %30.32 in9.0 miNorth (350°)9.2 mphClear
8:55 AM37.4 °F28.4 °F70 %30.34 in9.0 miNorth (360°)10.4 mphClear
9:35 AM37.4 °F26.6 °F65 %30.35 in10.0 miNorth (10°)9.2 mphClear
9:55 AM37.4 °F26.6 °F65 %30.36 in10.0 miNorth (360°)8.1 mphClear
10:15 AM37.4 °F26.6 °F65 %30.35 in10.0 miNNE (20°)9.2 mphClear
10:35 AM39.2 °F24.8 °F56 %30.35 in10.0 miNorth (10°)8.1 mphClear
10:55 AM39.2 °F26.6 °F61 %30.35 in10.0 miNorth (350°)9.2 mphClear
11:15 AM41.0 °F26.6 °F57 %30.34 in10.0 miNorth (10°)9.2 mphClear
11:35 AM42.8 °F24.8 °F49 %30.33 in10.0 miNorth (360°)9.2 mphClear
11:55 AM42.8 °F24.8 °F49 %30.33 in10.0 miNorth (360°)8.1 mphClear
12:15 PM42.8 °F24.8 °F49 %30.32 in10.0 miNNW (330°)9.2 mphClear
12:35 PM44.6 °F24.8 °F46 %30.31 in10.0 miNorth (350°)6.9 mphClear
12:55 PM44.6 °F24.8 °F46 %30.30 in10.0 miNNW (340°)10.4 mphClear
1:15 PM46.4 °F24.8 °F43 %30.30 in10.0 miNorth (360°)6.9 mphClear
1:35 PM46.4 °F24.8 °F43 %30.29 in10.0 miNNW (340°)9.2 mphClear
1:55 PM46.4 °F24.8 °F43 %30.29 in10.0 miNNW (340°)11.5 mphClear
2:15 PM48.2 °F24.8 °F40 %30.29 in10.0 miNNW (340°)10.4 mphClear
2:35 PM48.2 °F23.0 °F37 %30.30 in10.0 miNorth (360°)11.5 mph17.3 mphClear
2:55 PM48.2 °F24.8 °F40 %30.29 in10.0 miNorth (350°)11.5 mphClear
3:15 PM48.2 °F23.0 °F37 %30.30 in10.0 miNorth (360°)12.7 mph17.3 mphClear
3:35 PM48.2 °F23.0 °F37 %30.31 in10.0 miNorth (360°)11.5 mphClear
3:55 PM48.2 °F23.0 °F37 %30.31 in10.0 miNorth (350°)11.5 mphClear
4:15 PM46.4 °F23.0 °F40 %30.32 in10.0 miNorth (350°)9.2 mphClear
4:35 PM46.4 °F23.0 °F40 %30.32 in10.0 miNorth (360°)6.9 mphClear
4:55 PM44.6 °F24.8 °F46 %30.33 in10.0 miNorth (360°)4.6 mphClear
5:15 PM41.0 °F24.8 °F53 %30.33 in10.0 miNorth (350°)3.5 mphClear
5:35 PM37.4 °F30.2 °F75 %30.34 in10.0 miNNW (340°)3.5 mphClear
5:55 PM37.4 °F26.6 °F65 %30.35 in10.0 miNNW (330°)4.6 mphClear
6:15 PM37.4 °F26.6 °F65 %30.35 in10.0 miNNW (330°)5.8 mphClear
6:35 PM37.4 °F26.6 °F65 %30.36 in10.0 miNNW (330°)5.8 mphClear
6:55 PM39.2 °F24.8 °F56 %30.36 in10.0 miNNW (340°)6.9 mphClear
7:15 PM39.2 °F23.0 °F52 %30.37 in10.0 miNorth (350°)5.8 mphClear
7:35 PM37.4 °F23.0 °F56 %30.37 in10.0 miNorth (350°)5.8 mphClear
7:55 PM37.4 °F23.0 °F56 %30.37 in10.0 miNorth (10°)4.6 mphClear
8:15 PM37.4 °F23.0 °F56 %30.36 in10.0 miNNE (30°)3.5 mphClear
8:35 PM33.8 °F24.8 °F70 %30.37 in10.0 miCalmClear
8:55 PM33.8 °F26.6 °F75 %30.38 in3.0 miCalmClear
9:15 PM32.0 °F26.6 °F80 %30.40 in10.0 miCalmClear
9:35 PM30.2 °F26.6 °F86 %30.39 in10.0 miCalmClear
9:55 PM30.2 °F24.8 °F80 %30.39 in10.0 miNorth (350°)3.5 mphClear
10:15 PM33.8 °F24.8 °F70 %30.38 in10.0 miNorth (10°)6.9 mphClear
10:35 PM33.8 °F24.8 °F70 %30.38 in10.0 miNorth (350°)6.9 mphClear
10:55 PM33.8 °F24.8 °F70 %30.38 in10.0 miNorth (360°)6.9 mphClear
11:15 PM33.8 °F23.0 °F65 %30.38 in10.0 miNorth (10°)5.8 mphClear
11:55 PM33.8 °F24.8 °F70 %30.39 in10.0 miCalmClear
Hourly data recorded from KPIB, located miles away from Collins, Mississippi







STORIES FROM OUR PARTNERS